Location: Owatonna
(44.0840°N, 93.2260°W)
Time: 17:43:03
(UTC-05:00)

Tiangong - Pass Details

Date: 28 June 2022
Orbit: 379 x 386 km, 41.5° (Epoch: 10 August)

Event Time Altitude Azimuth Distance (km) Brightness Sun altitude
Rises 21:26:12 0° 250° (WSW) 2,237 2.2 -4.6°
Reaches altitude 10° 21:28:19 10° 243° (WSW) 1,386 1.0 -4.9°
Maximum altitude 21:31:18 43° 170° (S) 540 -1.7 -5.3°
Drops below altitude 10° 21:34:18 10° 97° (E) 1,389 0.2 -5.7°
Enters shadow 21:35:49 - 92° (E) 1,996 1.0 -5.9°
